LiveATC.Net - Listen to live air traffic control over the Internet! Contact for advertising information

ICAO: PALH  IATA: LHD   Airport: Lake Hood Seaplane Base
City: Anchorage   State/Province: Alaska
Country: United States   Continent: North America
PALH METAR Weather: PALH 292353Z 00000KT 10SM BKN075 01/M03 A2949 RMK AO2 SLP986 T00061028 10006 21017 58006
PALH Flight Activity (FlightAware)
PALH Airport Info   (AirNav) (iFlightPlanner)
PALH VFR Sectional Chart   (iFlightPlanner) 
PALH IFR Low Chart   (iFlightPlanner) 
PALH Tower
Feed Status: UP   Listeners: 2
Listen right in your browser - requires Flash (in browser, requires Flash)
Click here to listen with your own player (launches your MP3 player)
PALH Tower Audio Archives
Lake Hood Tower126.800

Feed sponsored by: SkyTrek Alaska Flight Training


Unauthorized use prohibited. See Terms of Service

Find LiveATC Audio Streams

Airport/ARTCC Code

(e.g., 124.400, 128.75)
Site-wide search

Browse LiveATC Feeds
LiveATC Coverage Map
Top 50 LiveATC Feeds
Bad Weather Areas

Offer a LiveATC Feed
Press Inquiries

LiveATC on iPhone
LiveATC on Android

Windows Phone
Windows 8/10

LiveATC Mobile
(Mobile browser)

ATC Audio Archives
Interesting Recordings

LiveATC Forums

Home Page
Make a Donation
LiveATC Bookstore

Terms of Use
Privacy Policy

ATC/Radar Sites
U.S. ARTCC Freqs
Canadian Air Freqs


FAA Airport Status
Nat'l Airspace Status
Arrival Demand Charts

Server Software By:

Please make a donation to help us keep growing!